STARLINK-37411, 69380

Orbit data source: Space-Track

STARLINK-37411, 69380 is a payload satellite owned by SpaceX/Seattle (US) in LEO that was launched on Thu, 04 Jun 2026 UTC via an FALCON 9 launch vehicle from the Air Force Eastern Test Range (AFETR). Payload-class satellites include a variety of spacecraft equipped with specific instruments for various scientific and technological missions. These include communications satellites like Starlink; space stations such as the ISS; scientific satellites like the Hubble; Earth observation satellites from companies like Planet Labs, Umbra, and HawkEye 360; GPS; miniature CubeSats for education and research; and military/defense satellites.

Loading next visibility...
Identifier
69380, 2026-123AD
Orbit
LEO
Country
Flag of USUS
Related business
Manufacturer
SpaceX/Seattle
Mission
Operational spacecraft
Bus & Motor
STARLINK V2MO, Unknown motor
Mass
575 kg wet, ~530 kg dry
Launch date (UTC)
2026-06-04 (2 months ago)
Launch vehicle
FALCON 9
Launch site
Air Force Eastern Test Range (AFETR)
Object type
Payload
Rocket body
Debris
Shape & HBR
BOX + PAN, 17.7 m
Radar Cross Section
Large (>1 m²)

Expand to show TLE details & history
Last TLE update: 8 hours ago

TLE from 8 hours ago
0 STARLINK-37411
1 69380U 26123AD  26207.58335648 -.01554689  00000-0 -26105-1 0  9994
2 69380  53.1596  44.4679 0000959 112.2110 336.0433 15.54049256  6023
Epoch: 2026-07-26T14:00Z
TLE epoch observation values (Epoch: 2026-07-26T14:00:01.999Z)
Latitude
53.27754°
Longitude
-22.74041°
Altitude
410.878 km
Speed
7.671 km/s
True Right ascension
08h 46m 11s
True Declination
53° 06' 15"
Sunlit
Object was in daylight at epoch
Visualization orbit readout
Latitude
Unknown
Longitude
Unknown
Altitude
Unknown
Speed
Unknown
Apparent Right ascension
Unknown
Apparent Declination
Unknown
Sunlit
N/A
Visualization observer readout
Local Sidereal Time
11:37:30
Azimuth
Unknown
Elevation
Unknown
Doppler factor
Unknown
Orbital elements
Apogee altitude
405.827 km
Perigee altitude
404.526 km
Semi-major axis
6,783.314 km
Eccentricity
0.0001
Inclination
53.1596°
RAAN
44.4679°
Arg. of periapsis
112.211°
True anomaly
336.03884°
Mean anomaly
336.0433°
Eccentric anomaly
336.04107°
Mean motion
3.8849 °/min
Orbital period
92.67 mins
BSTAR
-0.026105
Loading maneuver chart data...
Computing Atmospheric mass density...
Loading historical data...
Loading historical data...
Loading historical data...
Loading historical data...
Loading historical data...
Loading historical data...
Loading historical data...

Documentation

Showing up to 5 results
|